Other Public Products
Issued by NWS Grand Forks, ND

Home | Current Version | Previous Version | Graphics & Text | Print | Product List | Glossary On
Versions: 1 2 3 4 5 6 7 8 9 10 11 12 13 14 15 16 17 18 19 20 21 22 23 24 25 26 27 28 29 30 31 32 33 34 35 36 37 38 39 40 41 42 43 44 45 46 47 48 49 50
775
FPUS83 KFGF 131031
OPUFGF
PRAIRIE TO PINES WEATHER ROUNDUP
NATIONAL WEATHER SERVICE EASTERN NORTH DAKOTA/GRAND FORKS ND
400 AM CST SAT FEB 13 2016

 **SATELLITE DATA USED TO AUGMENT SKY COVER AT AUTOMATED STATIONS**
 *****  WEATHER ACROSS EASTERN NORTH DAKOTA  *****

CITY           SKY/WX    TMP DP  RH WIND       PRES   REMARKS
GRAND FORKS    CLOUDY    -8 -14  74 S5        30.61F WCI -19
GRAND FORKS AF CLEAR    -10 -16  74 S3        30.60F
GRAND CITY NWS NOT AVBL
BUXTON           N/A     -8 -10  87 SE2         N/A
DEVILS LAKE    CLOUDY   -10 -14  82 SE7       30.49F WCI -25
FARGO          CLOUDY    -7 -12  79 SE3       30.63F
WAHPETON ARPT  CLOUDY    -6 -13  71 SW3       30.63S
$$

 *****  WEATHER ACROSS CENTRAL AND WESTERN NORTH DAKOTA  *****

CITY           SKY/WX    TMP DP  RH WIND       PRES   REMARKS
JAMESTOWN      CLOUDY    -4 -12  68 SE9       30.49F WCI -20
BISMARCK       CLOUDY     9  -1  64 SE15      30.38F WCI  -8
MINOT          CLOUDY     8  -5  55 SE15      30.33F WCI  -9
MINOT AFB      CLOUDY     6  -3  67 SE15      30.33F WCI -12
GARRISON         N/A      6   1  80 SE14      30.32F WCI -11
WILLISTON      LGT SNOW  13   8  81 SE14G20   30.19F WCI  -2
DICKINSON      CLOUDY    11   7  84 SE21G29   30.14F WCI  -8
HETTINGER      CLOUDY    13   9  84 SE15      30.18F WCI  -3
$$

 *****  OTHER OBSERVATIONS NORTHEAST NORTH DAKOTA  *****

CITY           SKY/WX    TMP DP  RH WIND       PRES   REMARKS
WALHALLA       FAIR     -13 -18  77 S3        30.56F
LANGDON        FAIR     -18 -24  76 S8        30.47F WCI -37
CAVALIER       FAIR      -9 -13  84 S5        30.58F WCI -21
GRAFTON        FAIR     -11 -17  77 S7        30.62F WCI -26
CANDO          FAIR     -13 -18  77 SE7       30.49F WCI -29
FORT TOTTEN      N/A     -7 -14  72 SE7       29.95S WCI -21
ROLLA          FAIR      -9 -13  84 S8        30.41F WCI -26
RUGBY          FAIR       0  -9  65 SE12      30.41F WCI -18
 ***** THE ABOVE OBSERVATIONS ARE NON NWS ARE NOT QUALITY
        CONTROLLED AND MAY MIS-REPORT RAIN FOR SNOW...
$$

 *****  OTHER OBSERVATIONS SOUTHEAST NORTH DAKOTA *****

CITY           SKY/WX    TMP DP  RH WIND       PRES   REMARKS
COOPERSTOWN    NOT AVBL
VALLEY CITY    FAIR     -11 -15  84 S6        30.55F WCI -25
OAKES          FAIR      -2  -9  71 SE7       30.54F WCI -16
GWINNER        FAIR      -4  -9  77 SE6       30.56F WCI -16
BUFFALO          N/A    -14 -20  74 E5          N/A  WCI -26
WYNDMERE         N/A     -9 -15  77 SW2         N/A
 ***** THE ABOVE OBSERVATIONS ARE NON NWS ARE NOT QUALITY
       CONTROLLED AND MAY MIS-REPORT RAIN FOR SNOW...
$$

  *****  WEATHER ACROSS NORTHERN MINNESOTA  *****

CITY           SKY/WX    TMP DP  RH WIND       PRES   REMARKS
FLAG ISLAND    CLOUDY   -18 -24  76 CALM      30.54F
WARROAD        CLOUDY   -26 -33  68 SW3       30.56F
ROSEAU         PTCLDY   -24 -29  76 S5        30.57F WCI -38
HALLOCK        CLOUDY   -13 -18  77 SE7       30.59F WCI -29
THF RVR FALLS  CLOUDY   -17 -27  58 SE3       30.58F
HALSTAD          N/A     -8 -13  80 S5          N/A  WCI -20
FOSSTON          N/A    -27 -35  68 E3        30.57F
BAUDETTE       CLOUDY   -20 -26  74 CALM      30.55F
WASKISH        CLOUDY   -20 -26  76 CALM      30.57S
CROOKSTON      CLOUDY   -11 -17  77 SE5       30.61F WCI -23
$$
  *****  WEATHER ACROSS CENTRAL AND WEST MINNESOTA  *****

CITY           SKY/WX    TMP DP  RH WIND       PRES   REMARKS
BEMIDJI        CLOUDY   -22 -28  76 CALM      30.56S
PARK RAPIDS    CLOUDY   -17 -24  70 NE5       30.55F WCI -30
WADENA         CLOUDY   -17 -20  83 CALM      30.56S
DETROIT LAKES  CLOUDY   -15 -18  84 CALM      30.56F
MOORHEAD       CLOUDY    -8 -11  84 S5        30.62F WCI -19
FERGUS FALLS   CLOUDY    -8 -13  77 E3        30.64F
ELBOW LAKE     FAIR      -7 -12  77 NE3       30.60F
MORRIS MN      CLOUDY    -8 -11  84 W3        30.60F
STAPLES        CLOUDY   -18 -24  76 W3        30.57S
WHEATON        CLOUDY    -8 -11  84 CALM      30.64F
$$
  *****  WEATHER ELSEWHERE ACROSS MINNESOTA  *****

CITY           SKY/WX    TMP DP  RH WIND       PRES   REMARKS
DULUTH         CLOUDY   -13 -21  67 NW14      30.50F WCI -35
INTRNTL FALLS  CLOUDY   -22 -27  77 CALM      30.55F
ELY            CLOUDY   -20 -26  76 W6        30.51S WCI -36
CLOQUET        CLOUDY   -13 -20  70 NW10      30.53F WCI -32
BRAINERD       PTCLDY   -16 -22  74 SW3       30.60S
HIBBING        CLOUDY   -18 -23  77 NW3       30.54S
ALEXANDRIA     CLOUDY   -10 -16  74 CALM      30.57F
SAINT CLOUD    PTCLDY   -10 -16  74 NW3       30.61F
MINNEAPOLIS    PTCLDY    -5 -13  68 NW7       30.64F WCI -19
$$

  *****  WEATHER ACROSS SOUTH DAKOTA  *****

CITY           SKY/WX    TMP DP  RH WIND       PRES   REMARKS
SIOUX FALLS    CLOUDY     0  -9  65 E6        30.57F WCI -12
BROOKINGS      CLOUDY    -5 -11  75 E7        30.54F WCI -19
WATERTOWN      CLOUDY    -5 -13  68 S5        30.52S WCI -16
HURON          CLOUDY     4  -5  66 SE13      30.53F WCI -13
SISSETON         N/A     -8 -13  78 CALM      30.59F
ABERDEEN       CLOUDY     2  -7  66 SE6       30.55F WCI  -9
MITCHELL       CLOUDY     7  -2  66 SE12      30.55F WCI  -8
PIERRE         CLOUDY    11   4  73 E17G29    30.38F WCI  -6
MOBRIDGE       FLURRIES   7   0  73 SE14      30.37F WCI -10
RAPID CITY     CLOUDY    27  24  89 SE14      30.10F WCI  16
$$

  *****  SOME WEATHER IN NEARBY STATES *****

CITY           SKY/WX    TMP DP  RH WIND       PRES   REMARKS
GLASGOW MT     CLOUDY    18  13  80 E18       30.00F WCI   2
GREAT FALLS MT CLEAR     41  30  65 S8        29.86F
CHEYENNE WY    PTCLDY    32  26  78 VRB6      30.10F
SCOTTSBLUFF NE CLOUDY    33  30  88 SE12      30.14F WCI  24
OMAHA NE       CLOUDY    10  -1  61 CALM      30.65R
DES MOINES IA  CLOUDY     3  -5  69 N6        30.63F WCI  -8
DAVENPORT IA   CLOUDY     3  -6  66 NW6       30.60S WCI  -8
CHICAGO IL     PTCLDY     4 -10  52 NW13      30.53R WCI -13
EAU CLAIRE WI  PTCLDY    -6 -18  56 CALM      30.60R
LA CROSSE WI   CLOUDY    -2 -15  54 CALM      30.63R
$$

  *****  SOME NATIONAL WEATHER *****

CITY           SKY/WX    TMP DP  RH WIND       PRES   REMARKS
LA GUARDIA NY  PTCLDY    22  12  65 W17G25    29.87S WCI   8
RALEIGH NC     PTCLDY    32  15  49 VRB5      30.10R
ATLANTA GA     PTCLDY    32  20  61 NW21G29   30.23R WCI  20
NEW ORLEANS LA PTCLDY    53  36  52 NE15      30.32R
OKLAHOMA CITY  CLEAR     35  27  72 NE12      30.42F
ALBUQUERQUE NM CLEAR     42  21  43 N10       30.29F
SALT LAKE CITY CLOUDY    29  28  96 SW3       30.29F FOG
LOS ANGELES CA PTCLDY    54  51  90 W3        30.08S
BOISE ID       PTCLDY    34  32  92 CALM      30.21R FOG
SEATTLE WA     CLOUDY    44  40  85 S13       30.21F
$$

*** WEATHER ACROSS MANITOBA...SASKATCHEWAN AND ONTARIO ***
                ***ONTARIO***

CITY           SKY/WX    TMP DP  RH WIND       PRES   REMARKS
GERALDTON      CRYSTALS -18 -24  76 W7        30.33R WCI -35
THUNDER BAY    CLEAR    -13 -20  70 W8        30.52R WCI -30
SIOUX LOOKOUT  CLEAR    -22 -26  83 NW5       30.46F WCI -36
TORONTO        PTCLDY    -9 -20  59 N21G29    30.19R WCI -35
BIG TROUT LK   CLOUDY   -18 -24  76 W7        30.37S WCI -35
PICKLE LAKE    NOT AVBL
DRYDEN         CLEAR    -22 -26  83 W6        30.48R WCI -38
KENORA         CLEAR    -18 -24  76 VRB2      30.49F
$$
                *** MANITOBA***

CITY           SKY/WX    TMP DP  RH WIND       PRES   REMARKS
BRANDON        PTCLDY   -18 -22  83 E5        30.45F WCI -31
DAUPHIN        CLEAR    -20 -27  69 VRB2      30.45F
ISLAND LAKE    NOT AVBL
PILOT MOUND      N/A    -20 -26  76 SE7         N/A  WCI -37
THE PAS        CLEAR    -18 -26  69 SE8       30.38F WCI -37
THOMPSON       CLEAR    -29 -35  75 CALM      30.42F
WINNIPEG       CLEAR    -15 -20  76 S8        30.59F WCI -32
LYNN LAKE      CLEAR    -22 -27  76 S7        30.25F WCI -39
CHURCHILL      MOCLDY   -18 -26  69 W7        30.40S WCI -35
$$
                ***SASKATCHEWAN***

CITY           SKY/WX    TMP DP  RH WIND       PRES   REMARKS
ESTEVAN        NOT AVBL
KINDERSLEY     PTCLDY    18  14  86 SE18      29.81F WCI   2
LLOYDMINSTER   FLURRIES   9   7  92 SE15      29.85F WCI  -8
PRINCE ALBERT  MOCLDY    -6 -13  71 E10       30.11F WCI -23
REGINA         FLURRIES   9   3  78 SE25G33   30.11F WCI -13
YORKTON        MOCLDY    -6 -11  77 SE13G20   30.27F WCI -25
N. BATTLEFORD  CLOUDY    12   9  85 SE22      29.94F WCI  -7
LA RONGE       CLEAR     -9 -18  64 E7        30.14F WCC1F1C2F2C3F3C4F4C5F5C6F6C7F7C8F8C9F9CaFaCbFbCcFcCdFdCe!



USA.gov is the U.S. government's official web portal to all federal, state and local government web resources and services.